Вернуться в каталог

IRIDIUM 165

АктивенСвязьPO
NORAD 43572·PAYLOAD·🇺🇸 United States

Запущен Jul 25, 2018 с Vandenberg Space Force Base

Loading…

Ближайшие Пролёты (ближайшие 24 часа)

TLE

СвежийSource: CelesTrak SupGP

Эпоха: Sep 14, 2026, 21:41 UTC

1 43572C 18061D   26257.90381944 -.00001238  00000+0 -44261-3 0  2579
2 43572  86.4013  19.2827 0002151  94.3706  72.7236 14.34219521    12

Отслеживайте IRIDIUM 165 в реальном времени с AllMySat

Download on the App Store